#timestamp,LO_Frequency,Hit,StdDev 
1604768415.4,286047002.0,N
1604768435.2,286047001.3,N
1604768455.1,286047001.9,N
1604768456.0,286047001.9,N
1604768475.8,286047001.3,N
1604768495.7,286046999.7,N
1604768515.5,286047001.9,N
1604768535.3,286047001.8,N
1604768555.2,286047002.8,N
1604768575.0,286047002.3,N
1604768575.9,286047002.3,N
1604768595.8,286047002.2,N
1604768615.6,286046999.7,N
1604768635.4,286047002.6,N
1604768655.3,286047002.2,N
1604768675.1,286047002.2,N
1604768695.8,286047002.6,N
1604768715.7,286047002.8,N
1604768735.5,286047001.9,N
1604768755.4,286047001.4,N
1604768775.2,286047001.6,N
1604768795.0,286047004.0,Y
1604768795.9,286047004.0,P
1604768815.8,286046999.8,N
1604768835.6,286047000.7,N
1604768855.5,286046998.1,N
1604768875.3,286047000.4,N
1604768895.1,286047001.0,N
1604768915.9,286047002.6,N
1604768935.7,286047002.7,N
1604768955.5,286046999.7,N
1604768975.4,286047000.2,N
1604768995.2,286046998.2,N
1604769015.1,286047000.4,N
1604769016.0,286047000.4,N
1604769035.8,286047001.1,N
1604769055.6,286046999.9,N
1604769075.5,286047000.0,N
1604769095.3,286046998.4,N
1604769115.1,286046998.3,N
1604769135.9,286046999.6,N
1604769155.7,286046996.6,N
1604769175.6,286046997.8,N
1604769195.4,286046994.9,N
1604769215.2,286046997.5,N
1604769235.1,286046999.4,N
1604769236.0,286046999.4,N
1604769255.8,286046997.2,N
1604769275.7,286046996.7,N
1604769295.5,286046999.5,N
1604769315.3,286046998.7,N
1604769335.2,286046997.3,N
1604769355.9,286046998.0,N
1604769375.7,286046995.7,N
1604769395.6,286046994.9,N
1604769415.4,286046996.1,N
1604769435.3,286046993.7,Y
1604769455.1,286046995.9,P
1604769456.0,286046995.9,N
1604769475.8,286046996.2,N
1604769495.7,286046995.7,Y
1604769515.5,286046999.3,P
1604769535.4,286046999.1,N
1604769555.2,286046996.6,N
1604769575.0,286046997.5,N
1604769575.9,286046997.5,N
1604769595.8,286046996.5,Y
1604769615.6,286047000.4,P
1604769635.4,286047000.9,N
1604769655.3,286047001.1,N
1604769675.1,286046999.0,N
1604769695.9,286046998.9,N
1604769715.7,286046998.1,N
1604769735.5,286046999.3,N
1604769755.4,286046999.2,N
1604769775.2,286046996.6,Y
1604769795.1,286046998.9,P
1604769796.0,286046998.9,P
1604769815.8,286046998.8,P
1604769835.6,286046998.3,Y
1604769855.5,286047000.3,P
1604769875.3,286047002.8,P
1604769895.2,286046999.8,N
1604769915.9,286046999.9,N
1604769935.7,286047000.6,N
1604769955.6,286047000.4,N
1604769975.4,286047002.7,N
1604769995.2,286047000.2,N
1604770015.1,286047001.0,N
1604770016.0,286047001.0,N
1604770035.8,286046998.5,N
1604770055.7,286046998.2,N
1604770075.5,286046998.6,N
1604770095.3,286046998.1,N
1604770115.2,286046998.8,N
1604770135.0,286046996.6,N
1604770135.9,286046996.6,N
1604770155.8,286046999.0,N
1604770175.6,286046998.7,N
1604770195.4,286046999.2,N
1604770215.3,286046999.5,N
1604770235.1,286046999.5,N
1604770255.8,286046996.5,N
1604770275.7,286046999.2,N
1604770295.5,286046999.6,N
1604770315.4,286046997.4,N
1604770335.2,286046997.2,N
1604770355.0,286046997.6,N
1604770355.9,286046997.6,N
1604770375.8,286046997.9,N
1604770395.6,286046997.9,N
1604770415.4,286046996.6,N
1604770435.3,286046996.5,N
1604770455.1,286046996.5,N
1604770475.9,286046999.2,N
1604770495.7,286046996.7,N
1604770515.5,286046996.6,N
1604770535.4,286046996.9,N
1604770555.2,286046996.9,N
1604770575.0,286046997.2,N
1604770576.0,286046997.2,N
1604770595.8,286046996.9,N
1604770615.6,286046999.3,N
1604770635.5,286046998.9,N
1604770655.3,286046999.1,N
1604770675.1,286047000.4,N
1604770695.9,286047000.8,N
1604770715.7,286047000.5,N
1604770735.6,286047000.3,N
1604770755.4,286047000.2,N
1604770775.2,286047000.6,N
1604770795.1,286046999.1,N
1604770796.0,286046999.1,N
1604770815.8,286046999.5,N
1604770835.6,286046996.5,N
1604770855.5,286046996.9,N
1604770875.3,286046999.6,N
1604770895.2,286046996.9,N
1604770915.9,286046999.3,N
1604770935.7,286046998.6,N
1604770955.6,286047002.7,N
1604770975.4,286046999.9,N
1604770995.3,286047002.8,N
1604771015.1,286047002.4,N
1604771016.0,286047002.4,N
1604771035.8,286047000.2,N
1604771055.7,286047002.7,N
1604771075.5,286047000.3,N
1604771095.3,286047011.9,Y
1604771115.2,286047002.3,P
1604771135.0,286047002.5,N
1604771135.9,286047002.5,N
1604771155.8,286047002.8,N
1604771175.6,286047001.9,N
1604771195.4,286047001.5,N
1604771215.3,286047002.1,N
1604771235.1,286047001.9,N
1604771255.9,286047001.9,N
1604771275.7,286047004.0,Y
1604771295.5,286047000.0,P
1604771315.4,286047002.4,N
1604771335.2,286047002.2,N
1604771355.0,286047001.6,N
1604771355.9,286047001.6,N
1604771375.8,286047001.8,N
1604771395.6,286047004.4,Y
1604771415.5,286046999.7,P
1604771435.3,286047000.1,N
1604771455.1,286046998.1,N
1604771475.9,286047000.8,N
1604771495.7,286047000.6,N
1604771515.6,286047001.0,N
1604771535.4,286047000.1,N
1604771555.2,286047000.6,N
1604771575.1,286046999.7,N
1604771576.0,286046999.7,N
1604771595.8,286047000.5,N
1604771615.6,286047000.3,N
1604771635.5,286047002.3,N
1604771655.3,286047002.4,N
1604771675.2,286047002.7,N
1604771695.9,286046999.9,N
1604771715.7,286047000.8,N
1604771735.6,286047000.8,N
1604771755.4,286046998.5,N
1604771775.2,286047000.2,N
1604771795.1,286046999.8,N
1604771796.0,286046999.8,N
1604771815.8,286046999.7,N
1604771835.7,286047000.5,N
1604771855.5,286047002.8,N
1604771875.3,286047002.1,N
1604771895.2,286047004.3,Y
1604771915.0,286047001.5,P
1604771915.9,286047001.5,P
1604771935.8,286047002.2,P
1604771955.6,286047003.8,Y
1604771975.4,286047004.1,P
1604771995.3,286046999.9,N
